Location: Kellogg
(38.0159°N, 90.0546°W)
Time: 14:26:08
(UTC+00:00)

Transit 2A - Pass Details

Date: 19 September 2024
Orbit: 590 x 960 km, 66.7° (Epoch: 07 October)

Event Time Altitude Azimuth Distance (km) Brightness Sun altitude
Rises 09:18:33 0° 325° (NW) 3,602 9.4 -28.7°
Enters shadow 09:19:18 - 324° (NW) 3,324 9.2 -28.6°
Reaches altitude 10° 09:21:15 10° 320° (NW) 2,621 - -28.3°
Maximum altitude 09:27:02 45° 250° (WSW) 1,166 - -27.2°
Drops below altitude 10° 09:32:19 10° 178° (S) 2,397 - -26.3°
Sets 09:34:43 0° 172° (S) 3,266 - -25.9°
